Regional Weather Roundup
Issued by NWS

Home | Current Version | Previous Version | Text Only | Print | Product List | Glossary On
Versions: 1 2 3 4 5 6 7 8 9 10 11 12 13 14 15 16 17 18 19 20 21 22 23 24 25 26 27 28 29 30 31 32 33 34 35 36 37 38 39 40 41 42 43 44 45 46 47 48 49 50
000
ASUS45 KTFX 300610
RWRMT
MONTANA REGIONAL WEATHER ROUNDUP
NATIONAL WEATHER SERVICE GREAT FALLS MT
1200 AM MDT TUE MAY 30 2017

NOTE: "FAIR" INDICATES FEW OR NO CLOUDS BELOW 12000 FEET WITH NO
SIGNIFICANT WEATHER AND/OR OBSTRUCTIONS TO VISIBILITY.

MTZ001>007-043-300700-
WEST OF THE DIVIDE

CITY           SKY/WX    TMP DP  RH WIND       PRES   REMARKS
KALISPELL      CLEAR     59  46  62 VRB3      30.03S
MISSOULA       PTCLDY    61  42  49 N5        30.05R
BUTTE          CLEAR     51  40  65 SE8       30.18S
MULLAN PASS    CLEAR     59  35  40 SE7       30.17S
ANACONDA         N/A     52  37  58 SW3       30.16S
DEER LODGE       N/A     57  39  51 W6        30.16S
EUREKA           N/A     55  45  67 CALM      30.03S
PLAINS           N/A     60  48  64 CALM      30.02R
RONAN            N/A     61  45  55 CALM      30.08S
$$

MTZ008-052>055-300700-
SOUTHWEST MONTANA

CITY           SKY/WX    TMP DP  RH WIND       PRES   REMARKS
BOZEMAN        CLEAR     57  42  57 SW6       30.14R
DILLON         CLOUDY    57  41  55 CALM      30.15S
ENNIS          MOCLDY    54  36  50 SE8       30.22R
THREE FORKS      N/A     51  44  77 CALM      30.11S
TWIN BRIDGES     N/A     59  36  42 CALM      30.12S
$$

MTZ009-010-012-014-046-048-049-054-300700-
EAST SLOPES AND CENTRAL MONTANA

CITY           SKY/WX    TMP DP  RH WIND       PRES   REMARKS
CUT BANK       PTCLDY    58  44  60 NE13      30.11S
GREAT FALLS    CLOUDY    60  44  55 SE8       30.11R
MALMSTROM AFB  CLOUDY    56  47  70 SE10      30.10F
HELENA         CLEAR     62  40  44 W8        30.10S
CHOTEAU          N/A     55  45  67 CALM      30.14S
CONRAD           N/A     52  52 100 E3        30.12F
$$

MTZ011-013-016-021-045-047-050-051-300700-
NORTH CENTRAL MONTANA

CITY           SKY/WX    TMP DP  RH WIND       PRES   REMARKS
HAVRE          CLEAR     55  34  45 E12       30.11S
LEWISTOWN      CLEAR     47  39  74 SE6       30.16S
N BAR RANCH      N/A     43  37  81 W7        30.21R
CHINOOK          N/A     54  34  47 CALM      30.12S
FORT BENTON      N/A     61  37  41 MISG      30.10S
$$

MTZ017>020-022>027-061-062-300700-
NORTHEAST MONTANA

CITY           SKY/WX    TMP DP  RH WIND       PRES   REMARKS
GLASGOW        CLEAR     47  27  45 NE10      30.11R
JORDAN           N/A     43  27  53 W5        30.12R
SIDNEY         CLEAR     46  30  53 NW12      30.07S
WOLF POINT     CLEAR     46  28  49 CALM      30.10S
MALTA          CLEAR     45  36  70 SE5       30.12R
PLENTYWOOD       N/A     46  28  49 N6        30.08S
POPLAR           N/A     46  28  49 N3        30.10S
SCOBEY           N/A     42  23  47 CALM      30.09R
$$

MTZ028>42-056>058-300700-
SOUTHCENTRAL AND SOUTHEAST MONTANA

CITY           SKY/WX    TMP DP  RH WIND       PRES   REMARKS
BAKER          CLEAR     44  35  70 CALM      30.11S
BILLINGS       PTCLDY    60  40  47 E3        30.13S
LIVINGSTON     CLEAR     50  41  71 W5        30.16S
MILES CITY     CLEAR     50  26  39 NW8       30.10S
BIG TIMBER     CLEAR     52  43  71 CALM      30.18S
EKALAKA          N/A     47  27  46 S2        30.09S
FORSYTH          N/A     54  28  37 CALM      30.12S
LAUREL           N/A     53  39  59 CALM      30.11F
ROUNDUP          N/A     55  30  38 N3        30.05R
$$

REGIONAL REPORTS...DAKOTAS

CITY           SKY/WX    TMP DP  RH WIND       PRES   REMARKS
WILLISTON      CLEAR     45  30  55 CALM      30.06S
MINOT          PTCLDY    47  38  71 W9        30.02R
DICKINSON      CLEAR     39  29  67 W7        30.04S
BEACH            N/A     37  32  81 CALM      30.12S
CROSBY           N/A     41  28  60 NW9       30.07R
TIOGA            N/A     41  32  70 CALM      30.06S
WATFORD CITY     N/A     45  30  57 CALM      30.05R
BISMARCK       PTCLDY    43  36  76 S3        30.04R
GRAND FORKS    CLOUDY    49  43  80 N13       29.91S
FARGO          CLOUDY    50  44  80 N10       29.92S
BUFFALO SD       N/A     45  31  58 NW6       30.04S
RAPID CITY     CLEAR     43  29  57 NW9       30.12S
$$

REGIONAL REPORTS...WYOMING/IDAHO/WASHINGTON

CITY           SKY/WX    TMP DP  RH WIND       PRES   REMARKS
GILLETTE       CLEAR     42  33  70 CALM      30.16S
SHERIDAN       CLEAR     44  38  79 SW3       30.15S
BUFFALO WY     CLEAR     49  36  61 SW9       30.20S
CODY           CLEAR     48  36  63 S3        30.20F
YELLOWSTONE LA   N/A     36  31  82 CALM      30.33S
IDAHO FALLS    CLEAR     53  47  79 CALM      30.13S
SALMON         CLOUDY    61  45  55 CALM      30.06S
BOISE          CLEAR     69  43  38 SE8       29.97S
SPOKANE        CLEAR     71  46  40 W6        29.95S
$$

REGIONAL REPORTS...ALBERTA

CITY           SKY/WX    TMP DP  RH WIND       PRES   REMARKS
EDMONTON       CLEAR     52  37  58 SE8       30.10S
CALGARY        PTCLDY    57  45  62 S8        30.11S
LETHBRIDGE     PTCLDY    54  41  62 SE9       30.10S
MEDICINE HAT   CLEAR     55  37  50 E7        30.10S
WATERTON GATE    N/A     48  45  87 SW6         N/A
CARDSTON         N/A     55  46  71 SW6         N/A
MILK RIVER       N/A     52  41  66 NE3         N/A
$$

REGIONAL REPORTS...SASKATCHEWAN

CITY           SKY/WX    TMP DP  RH WIND       PRES   REMARKS
SWIFT CURRENT  CLEAR     48  27  43 E6        30.13R
REGINA         CLEAR     48  36  61 NE10      30.11R
SASKATOON      CLEAR     45  32  61 N5        30.16R
CYPRESS HILLS    N/A     45  28  53 E3          N/A
VAL MARIE        N/A     37  30  75 NE3         N/A
ROCKGLEN         N/A     46  28  49 N5          N/A
ASSINIBOIA       N/A     52  32  46 SE3         N/A
$$



USA.gov is the U.S. government's official web portal to all federal, state and local government web resources and services.